Regional Weather Roundup
Issued by NWS

Home | Current Version | Previous Version | Text Only | Print | Product List | Glossary On
Versions: 1 2 3 4 5 6 7 8 9 10 11 12 13 14 15 16 17 18 19 20 21 22 23 24 25 26 27 28 29 30 31 32 33 34 35 36 37 38 39 40 41 42 43 44 45 46 47 48 49 50
394
ASUS43 KTOP 251608
RWRKS

WEATHER ROUNDUP FOR KANSAS
NATIONAL WEATHER SERVICE GOODLAND KS
1100 AM CDT SAT MAR 25 2017

NOTE:  "FAIR" INDICATES FEW OR NO CLOUDS BELOW 12,000 FEET WITH NO
SIGNIFICANT WEATHER AND/OR OBSTRUCTIONS TO VISIBILITY.

KSZ001>006-013>018-027>032-041>047-251700-
NORTHWEST KANSAS

CITY           SKY/WX    TMP DP  RH WIND       PRES   REMARKS
GOODLAND       SUNNY     47  35  63 N13       30.06S
HAYS             N/A     43  38  82 N17       30.01R
HILL CITY      CLOUDY    41  38  89 N13       30.03S
RUSSELL        CLOUDY    40  38  93 N17       30.00R WCI  31
$$

KSZ061>065-074>080-084>089-251700-
SOUTHWEST KANSAS

CITY           SKY/WX    TMP DP  RH WIND       PRES   REMARKS
DODGE CITY     MOSUNNY   50  37  61 NW17      30.02R
ELKHART          N/A     50  25  38 NW12        N/A
GARDEN CITY    SUNNY     49  29  46 NW15      30.04F
GREAT BEND     CLOUDY    42  39  89 N16       30.00R
LIBERAL        SUNNY     52  34  50 N21       30.07S
PRATT          CLOUDY    41  37  84 N16       29.99R
$$

KSZ066>073-081>083-090>101-251700-
SOUTHEAST KANSAS

CITY           SKY/WX    TMP DP  RH WIND       PRES   REMARKS
CHANUTE        CLOUDY    47  42  83 NW17      29.86R
COFFEYVILLE    PTSUNNY   51  45  79 NW14      29.86S
HUTCHINSON     CLOUDY    42  38  85 N17G25    29.96R
MEDICINE LODGE   N/A     46  38  73 N14G21    29.98R
NEWTON         CLOUDY    41  39  93 N21       29.93R
PARSONS        CLOUDY    50  45  83 NW16      29.87R
WICHITA INTL   CLOUDY    44  40  85 N14       29.94R
WICHITA JABRA  CLOUDY    44  40  85 N17G24    29.93R
WICHITA MCCONL CLOUDY    44  39  84 N14G24    29.93R
WINFIELD       CLOUDY    45  41  86 NW17      29.95R
$$

KSZ007>012-019>026-033>040-048>060-102>105-251700-
NORTHEAST KANSAS

CITY           SKY/WX    TMP DP  RH WIND       PRES   REMARKS
CONCORDIA      CLOUDY    41  38  89 N16G23    29.97R
EMPORIA        CLOUDY    45  44  97 N13       29.87S
LAWRENCE       CLOUDY    49  48  97 NW9       29.85S
MANHATTAN      LGT RAIN  43  41  93 N9        29.92R FOG
MARYSVILLE     CLOUDY    41  41 100 N16G25    29.93R
OLATHE IND     CLOUDY    49  49 100 NW10      29.84R FOG
OLATHE EXE     CLOUDY    49  49 100 NW6       29.84R FOG
SALINA         CLOUDY    44  39  82 N17G28    29.97R
TOPEKA BILLARD LGT RAIN  46  46 100 N15       29.86F FOG
TOPEKA FORBES  LGT RAIN  47  45  93 N14       29.86S
$$




USA.gov is the U.S. government's official web portal to all federal, state and local government web resources and services.